This is the latest recevied weather packets stored in our database for station/object 5B4APJ-13. If no packets are shown the sender has not sent any weather packets the latest 10 day(s).
| Time | Temp. | Humidity | Pressure | Rain* | Wind** | Luminosity | Snow |
|---|---|---|---|---|---|---|---|
| 1777906024 | 15.56° C | 56% | 1009.6 hPa | 0 mm | 2.24 m/s, 278° | 119 W/m² | - |
| 1777905724 | 15.56° C | 55% | 1009.4 hPa | 0 mm | 2.68 m/s, 247° | 68 W/m² | - |
| 1777905424 | 15.56° C | 55% | 1009.4 hPa | 0 mm | 1.79 m/s, 284° | 126 W/m² | - |
| 1777905123 | 15.56° C | 55% | 1009.4 hPa | 0 mm | 0.45 m/s, 278° | 149 W/m² | - |
| 1777904823 | 15° C | 54% | 1009.5 hPa | 0 mm | 2.68 m/s, 269° | 125 W/m² | - |
| 1777904524 | 15.56° C | 55% | 1009.3 hPa | 0 mm | 1.79 m/s, 275° | 110 W/m² | - |
| 1777904224 | 15.56° C | 56% | 1009.5 hPa | 0 mm | 3.13 m/s, 280° | 138 W/m² | - |
| 1777903924 | 15.56° C | 56% | 1009.3 hPa | 0 mm | 0.89 m/s, 278° | 125 W/m² | - |
| 1777903624 | 15.56° C | 55% | 1009.3 hPa | 0 mm | 3.13 m/s, 327° | 112 W/m² | - |
| 1777903323 | 16.11° C | 52% | 1009.3 hPa | 0 mm | 3.13 m/s, 309° | 160 W/m² | - |
| 1777903022 | 16.11° C | 54% | 1009.3 hPa | 0 mm | 1.34 m/s, 306° | 235 W/m² | - |
| 1777902723 | 16.11° C | 54% | 1009.2 hPa | 0 mm | 2.68 m/s, 338° | 172 W/m² | - |
| 1777902423 | 16.11° C | 53% | 1009.2 hPa | 0 mm | 4.92 m/s, 311° | 173 W/m² | - |
| 1777902123 | 16.11° C | 54% | 1009.4 hPa | 0 mm | 2.24 m/s, 294° | 153 W/m² | - |
| 1777901823 | 15.56° C | 54% | 1009.3 hPa | 0 mm | 5.36 m/s, 305° | 500 W/m² | - |
| 1777901523 | 15.56° C | 55% | 1009.2 hPa | 0 mm | 1.79 m/s, 286° | 183 W/m² | - |
| 1777901223 | 15.56° C | 54% | 1009.2 hPa | 0 mm | 4.92 m/s, 307° | 116 W/m² | - |
| 1777900923 | 15.56° C | 54% | 1009.2 hPa | 0 mm | 3.13 m/s, 321° | 417 W/m² | - |
| 1777900623 | 15.56° C | 54% | 1009.1 hPa | 0 mm | 4.02 m/s, 305° | 245 W/m² | - |
| 1777900323 | 15.56° C | 54% | 1009.1 hPa | 0 mm | 6.26 m/s, 310° | 229 W/m² | - |
| 1777900023 | 15.56° C | 52% | 1009.3 hPa | 0 mm | 3.13 m/s, 278° | 184 W/m² | - |
| 1777899723 | 15.56° C | 50% | 1009.1 hPa | 0 mm | 2.68 m/s, 249° | 171 W/m² | - |
| 1777899423 | 15.56° C | 53% | 1009.3 hPa | 0 mm | 2.68 m/s, 254° | 148 W/m² | - |
| 1777899124 | 15.56° C | 53% | 1009 hPa | 0 mm | 4.47 m/s, 295° | 176 W/m² | - |
| 1777898823 | 15.56° C | 54% | 1009.2 hPa | 0 mm | 4.02 m/s, 280° | 261 W/m² | - |
* Rain latest hour (hover to see other rain measurements)
** Current wind speed in m/s (hover to see current wind gust speed)